| time (UTC) | temp F | wind direction | speed MPH | gust MPH | rain 1hr in | rain 24hr in | rain mn in | humidity % | barometer mb |
| 20260902194537 | 77 | 192 | 13.0 | 24.0 | 0.00 | 0.01 | 0.00 | 36 | 1025.0 |
| 20260902193035 | 75 | 203 | 14.0 | 21.0 | 0.00 | 0.01 | 0.00 | 39 | 1025.1 |
| 20260902191540 | 74 | 196 | 8.0 | 19.0 | 0.00 | 0.01 | 0.00 | 43 | 1025.4 |
| 20260902190039 | 74 | 136 | 8.0 | 11.0 | 0.00 | 0.01 | 0.00 | 41 | 1025.7 |
| 20260902184538 | 73 | 144 | 8.0 | 15.0 | 0.00 | 0.01 | 0.00 | 42 | 1026.1 |
| 20260902183051 | 73 | 231 | 7.0 | 10.0 | 0.00 | 0.01 | 0.00 | 44 | 1026.2 |
| 20260902181539 | 69 | 159 | 8.0 | 19.0 | 0.00 | 0.01 | 0.00 | 49 | 1026.9 |
| 20260902180043 | 0 | 0.0 | 0.0 | 0.00 | 0.01 | 0.00 | 1027.1 | ||
| 20260902174537 | 0 | 0.0 | 0.0 | 0.00 | 0.01 | 0.00 | 1027.2 | ||
| 20260902173053 | 0 | 0.0 | 0.0 | 0.00 | 0.01 | 0.00 | 1027.2 | ||
| 20260902171534 | 0 | 0.0 | 0.0 | 0.00 | 0.01 | 0.00 | 1027.4 | ||
| 20260902170038 | 0 | 0.0 | 0.0 | 0.00 | 0.01 | 0.00 | 1027.4 | ||
| 20260902164542 | 0 | 0.0 | 0.0 | 0.00 | 0.01 | 0.00 | 1027.4 | ||
| 20260902163041 | 0 | 0.0 | 0.0 | 0.00 | 0.01 | 0.00 | 1027.5 | ||
| 20260902161536 | 0 | 0.0 | 0.0 | 0.00 | 0.01 | 0.00 | 1027.5 | ||
| 20260902160036 | 0 | 0.0 | 0.0 | 0.00 | 0.01 | 0.00 | 1027.5 | ||
| 20260902154539 | 0 | 0.0 | 0.0 | 0.00 | 0.01 | 0.00 | 1027.7 | ||
| 20260902153034 | 0 | 0.0 | 0.0 | 0.00 | 0.01 | 0.00 | 1027.6 | ||
| 20260902151537 | 0 | 0.0 | 0.0 | 0.00 | 0.01 | 0.00 | 1027.7 | ||
| 20260902150035 | 0 | 0.0 | 0.0 | 0.00 | 0.01 | 0.00 | 1027.7 | ||
| 20260902144534 | 61 | 0 | 0.0 | 2.0 | 0.00 | 0.01 | 0.00 | 59 | 1027.9 |
| 20260902143034 | 60 | 52 | 2.0 | 4.0 | 0.00 | 0.01 | 0.00 | 58 | 1027.7 |
| 20260902141536 | 57 | 0 | 0.0 | 1.0 | 0.00 | 0.01 | 0.00 | 63 | 1027.7 |
| 20260902140038 | 56 | 0 | 0.0 | 0.0 | 0.00 | 0.01 | 0.00 | 66 | 1027.8 |
| 20260902134537 | 52 | 0 | 0.0 | 2.0 | 0.00 | 0.01 | 0.00 | 75 | 1027.7 |
| 20260902133035 | 48 | 0 | 0.0 | 1.0 | 0.00 | 0.01 | 0.00 | 80 | 1027.7 |
| 20260902131539 | 47 | 0 | 0.0 | 0.0 | 0.00 | 0.01 | 0.00 | 79 | 1027.7 |
| 20260902130035 | 47 | 0 | 0.0 | 3.0 | 0.00 | 0.01 | 0.00 | 77 | 1027.4 |
| 20260902124537 | 48 | 0 | 0.0 | 0.0 | 0.00 | 0.01 | 0.00 | 76 | 1027.5 |
| 20260902123036 | 48 | 0 | 0.0 | 0.0 | 0.00 | 0.01 | 0.00 | 76 | 1027.5 |
| 20260902121536 | 49 | 0 | 0.0 | 0.0 | 0.00 | 0.01 | 0.00 | 76 | 1027.3 |
| 20260902120034 | 49 | 0 | 0.0 | 0.0 | 0.00 | 0.01 | 0.00 | 75 | 1027.3 |
| 20260902114535 | 49 | 0 | 0.0 | 5.0 | 0.00 | 0.01 | 0.00 | 76 | 1027.3 |
| 20260902113036 | 48 | 0 | 0.0 | 3.0 | 0.00 | 0.01 | 0.00 | 78 | 1027.3 |
| 20260902111533 | 48 | 0 | 0.0 | 0.0 | 0.00 | 0.01 | 0.00 | 77 | 1027.2 |
| 20260902110046 | 48 | 0 | 0.0 | 0.0 | 0.00 | 0.01 | 0.00 | 75 | 1027.1 |
| 20260902104553 | 49 | 0 | 0.0 | 0.0 | 0.00 | 0.01 | 0.00 | 74 | 1027.1 |
| 20260902103047 | 49 | 0 | 0.0 | 1.0 | 0.00 | 0.01 | 0.00 | 72 | 1027.1 |
| 20260902101536 | 50 | 0 | 0.0 | 3.0 | 0.00 | 0.01 | 0.00 | 72 | 1027.0 |
| 20260902100037 | 49 | 77 | 4.0 | 7.0 | 0.00 | 0.01 | 0.00 | 72 | 1027.1 |
| 20260902094537 | 49 | 42 | 4.0 | 5.0 | 0.00 | 0.01 | 0.00 | 73 | 1027.1 |
| 20260902093034 | 49 | 0 | 0.0 | 0.0 | 0.00 | 0.01 | 0.00 | 72 | 1027.1 |
| 20260902091537 | 50 | 0 | 0.0 | 4.0 | 0.00 | 0.01 | 0.00 | 75 | 1027.4 |
| 20260902090040 | 49 | 0 | 0.0 | 0.0 | 0.00 | 0.01 | 0.00 | 73 | 1027.6 |
| 20260902084540 | 49 | 0 | 0.0 | 4.0 | 0.00 | 0.01 | 0.00 | 72 | 1027.5 |
| 20260902083034 | 49 | 74 | 2.0 | 5.0 | 0.00 | 0.01 | 0.00 | 71 | 1027.2 |
| 20260902081535 | 49 | 77 | 3.0 | 8.0 | 0.00 | 0.01 | 0.00 | 72 | 1027.6 |
| 20260902080035 | 49 | 62 | 4.0 | 7.0 | 0.00 | 0.01 | 0.00 | 72 | 1027.5 |
| 20260902074537 | 51 | 58 | 1.0 | 3.0 | 0.00 | 0.01 | 0.00 | 73 | 1027.6 |
| 20260902073036 | 50 | 0 | 0.0 | 4.0 | 0.00 | 0.01 | 0.00 | 75 | 1027.4 |
| 20260902071533 | 49 | 38 | 2.0 | 5.0 | 0.00 | 0.01 | 0.00 | 75 | 1027.6 |
| 20260902070033 | 50 | 0 | 0.0 | 2.0 | 0.00 | 0.01 | 0.00 | 74 | 1027.5 |
| 20260902064537 | 49 | 0 | 0.0 | 0.0 | 0.00 | 0.01 | 0.00 | 74 | 1027.6 |
| 20260902063051 | 50 | 65 | 2.0 | 6.0 | 0.00 | 0.01 | 0.00 | 73 | 1027.4 |
| 20260902061557 | 50 | 0 | 0.0 | 4.0 | 0.00 | 0.01 | 0.00 | 74 | 1027.3 |
| 20260902060040 | 50 | 63 | 0.0 | 3.0 | 0.00 | 0.01 | 0.00 | 74 | 1027.3 |
| 20260902054536 | 51 | 0 | 0.0 | 3.0 | 0.00 | 0.01 | 0.01 | 73 | 1027.3 |
| 20260902053039 | 51 | 0 | 0.0 | 0.0 | 0.00 | 0.01 | 0.01 | 73 | 1027.4 |
| 20260902051547 | 51 | 0 | 0.0 | 3.0 | 0.00 | 0.01 | 0.01 | 74 | 1027.3 |
| 20260902050036 | 51 | 68 | 3.0 | 6.0 | 0.00 | 0.01 | 0.01 | 74 | 1027.3 |
| 20260902044601 | 51 | 86 | 4.0 | 8.0 | 0.00 | 0.01 | 0.01 | 73 | 1027.4 |
| 20260902043036 | 52 | 76 | 3.0 | 7.0 | 0.00 | 0.01 | 0.01 | 73 | 1027.6 |
| 20260902041542 | 52 | 62 | 3.0 | 6.0 | 0.00 | 0.01 | 0.01 | 72 | 1027.6 |
| 20260902040034 | 53 | 0 | 1.0 | 2.0 | 0.00 | 0.01 | 0.01 | 71 | 1027.6 |
| 20260902034538 | 54 | 101 | 0.0 | 3.0 | 0.00 | 0.05 | 0.01 | 71 | 1027.5 |
| 20260902033036 | 53 | 104 | 2.0 | 6.0 | 0.00 | 0.05 | 0.01 | 73 | 1027.2 |
| 20260902031549 | 54 | 74 | 1.0 | 9.0 | 0.00 | 0.05 | 0.01 | 72 | 1027.2 |
| 20260902030035 | 55 | 80 | 4.0 | 7.0 | 0.00 | 0.05 | 0.01 | 70 | 1027.0 |
| 20260902024542 | 55 | 65 | 4.0 | 8.0 | 0.00 | 0.05 | 0.01 | 69 | 1026.4 |
| 20260902023034 | 56 | 64 | 4.0 | 8.0 | 0.00 | 0.05 | 0.01 | 68 | 1026.3 |
| 20260902021535 | 58 | 94 | 3.0 | 5.0 | 0.00 | 0.05 | 0.01 | 64 | 1026.1 |
| 20260902020034 | 59 | 68 | 2.0 | 4.0 | 0.00 | 0.05 | 0.01 | 59 | 1026.2 |
| 20260902014539 | 60 | 0 | 0.0 | 3.0 | 0.00 | 0.05 | 0.01 | 59 | 1026.0 |
| 20260902013037 | 62 | 0 | 0.0 | 4.0 | 0.00 | 0.05 | 0.01 | 58 | 1025.9 |
| 20260902011536 | 63 | 53 | 3.0 | 6.0 | 0.00 | 0.05 | 0.01 | 57 | 1026.1 |
| 20260902010036 | 62 | 0 | 0.0 | 5.0 | 0.00 | 0.05 | 0.01 | 58 | 1026.1 |
| 20260902004537 | 61 | 0 | 1.0 | 7.0 | 0.00 | 0.05 | 0.01 | 60 | 1026.4 |
| 20260902003038 | 62 | 301 | 6.0 | 13.0 | 0.00 | 0.05 | 0.01 | 61 | 1026.4 |
| 20260902001538 | 63 | 305 | 9.0 | 19.0 | 0.00 | 0.05 | 0.01 | 58 | 1026.5 |
| 20260902000038 | 66 | 277 | 6.0 | 14.0 | 0.00 | 0.05 | 0.01 | 56 | 1026.3 |
| 20260901234533 | 68 | 267 | 4.0 | 12.0 | 0.00 | 0.05 | 0.01 | 54 | 1025.9 |
| 20260901233035 | 70 | 299 | 5.0 | 9.0 | 0.00 | 0.05 | 0.01 | 51 | 1025.9 |
| 20260901231540 | 70 | 286 | 3.0 | 7.0 | 0.00 | 0.05 | 0.01 | 50 | 1025.8 |
| 20260901230038 | 71 | 299 | 1.0 | 4.0 | 0.00 | 0.05 | 0.01 | 47 | 1025.9 |
| 20260901224537 | 72 | 236 | 1.0 | 5.0 | 0.00 | 0.09 | 0.01 | 45 | 1025.9 |
| 20260901223036 | 73 | 0 | 0.0 | 5.0 | 0.00 | 0.09 | 0.01 | 45 | 1026.1 |
| 20260901221535 | 72 | 0 | 0.0 | 8.0 | 0.00 | 0.09 | 0.01 | 45 | 1026.2 |
| 20260901220035 | 72 | 262 | 0.0 | 9.0 | 0.00 | 0.09 | 0.01 | 46 | 1026.5 |
| 20260901214536 | 72 | 278 | 1.0 | 8.0 | 0.00 | 0.18 | 0.01 | 50 | 1026.6 |
| 20260901213035 | 71 | 0 | 0.0 | 5.0 | 0.00 | 0.18 | 0.01 | 49 | 1027.0 |
| 20260901211535 | 69 | 332 | 4.0 | 10.0 | 0.00 | 0.18 | 0.01 | 57 | 1027.4 |
| 20260901210035 | 67 | 0 | 1.0 | 9.0 | 0.00 | 0.18 | 0.01 | 57 | 1027.7 |
| 20260901204539 | 67 | 244 | 5.0 | 11.0 | 0.00 | 0.18 | 0.01 | 57 | 1028.0 |
| 20260901203034 | 65 | 0 | 0.0 | 5.0 | 0.00 | 0.18 | 0.01 | 62 | 1028.0 |
| 20260901201533 | 64 | 0 | 0.0 | 5.0 | 0.00 | 0.18 | 0.01 | 64 | 1028.0 |
| 20260901200034 | 62 | 5 | 4.0 | 10.0 | 0.00 | 0.18 | 0.01 | 68 | 1028.3 |